Weather History for Columbia, MO

Change the Weather History Date:

Wednesday, March 6, 2013

  Actual Average Record
Temperature  
Mean Temperature 30 °F 41 °F  
Max Temperature 35 °F 51 °F 85 °F (1956)
Min Temperature 24 °F 31 °F -5 °F (1960)
Degree Days  
Heating Degree Days 35 24  
Month to date heating degree days 206 150  
Since 1 July heating degree days 3789 4096  
Cooling Degree Days 0 0  
Month to date cooling degree days 0 0  
Year to date cooling degree days 1 0  
Moisture  
Dew Point 20 °F    
Average Humidity 64    
Maximum Humidity 75    
Minimum Humidity 52    
Precipitation  
Precipitation T in 0.09 in 1.78 in (1973)
Month to date precipitation 0.05 0.52  
Year to date precipitation 6.29 4.69  
Snow  
Snow 0.00 in 0.10 in 4.60 in (1989)
Month to date snowfall 0.3 0.5  
Since 1 July snowfall 25.0 16.6  
Snow Depth 0.00 in    
Sea Level Pressure  
Sea Level Pressure 30.35 in    
Wind  
Wind Speed 9 mph (NNW)    
Max Wind Speed 30 mph    
Max Gust Speed 36 mph    
Visibility 10 miles    
Events      
T = Trace of Precipitation, MM = Missing Value Source: NWS Daily Summary

Daily Weather History Graph

Daily Weather History Graph

Search for Another Location

Airport:

Trip Planner

Search our weather history database for the weather conditions in past years. The results will help you decide how hot, cold, wet, or windy it might be!

Date:

Astronomy

Mar. 06, 2013 Rise Set
Actual Time 6:33 AM CST 6:07 PM CST
Civil Twilight 6:06 AM CST 6:33 PM CST
Nautical Twilight 5:36 AM CST 7:04 PM CST
Astronomical Twilight 5:05 AM CST 7:35 PM CST
Moon 2:40 AM CST (3/6) 12:51 PM CST (3/6)
Length of Visible Light 12h 26m
Length of Day
11h 33m
Waning Crescent, 29% of the Moon is Illuminated
Mar 6
Waning Crescent
Mar 11
New
Mar 19
First Quarter
Mar 27
Full
Apr 2
Last Quarter

Hourly Weather History & Observations

Time (CST) Temp. Windchill Dew Point Humidity Pressure Visibility Wind Dir Wind Speed Gust Speed Precip Events Conditions
12:20 AM 30.0 °F 18.7 °F 21.0 °F 69% 30.23 in 10.0 mi NW 16.1 mph 26.5 mph N/A   Overcast
12:32 AM 30.0 °F 18.3 °F 19.9 °F 66% 30.24 in 10.0 mi NW 17.3 mph - N/A   Overcast
12:54 AM 30.0 °F 17.5 °F 21.9 °F 72% 30.28 in 10.0 mi NNW 19.6 mph - N/A   Overcast
1:44 AM 30.0 °F 16.0 °F 21.0 °F 69% 30.27 in 10.0 mi NNW 25.3 mph 36.8 mph 0.00 in   Overcast
1:54 AM 30.0 °F 16.9 °F 19.0 °F 64% 30.29 in 10.0 mi North 21.9 mph 35.7 mph 0.00 in   Overcast
2:51 AM 28.4 °F 16.6 °F 19.4 °F 69% 30.27 in 10.0 mi NNW 16.1 mph - N/A   Overcast
2:54 AM 28.9 °F 16.1 °F 19.9 °F 69% 30.30 in 10.0 mi NNW 19.6 mph - N/A   Overcast
3:23 AM 28.9 °F 17.7 °F 21.0 °F 72% 30.27 in 10.0 mi NW 15.0 mph - N/A   Overcast
3:54 AM 28.9 °F 17.3 °F 19.9 °F 69% 30.31 in 10.0 mi NW 16.1 mph - N/A   Overcast
4:06 AM 28.9 °F 17.7 °F 19.9 °F 69% 30.29 in 10.0 mi NW 15.0 mph - N/A   Overcast
4:54 AM 28.9 °F 18.2 °F 19.9 °F 69% 30.34 in 10.0 mi NW 13.8 mph - N/A   Overcast
5:37 AM 28.0 °F 18.1 °F 19.9 °F 72% 30.33 in 10.0 mi NW 11.5 mph - N/A   Overcast
5:54 AM 28.0 °F 17.5 °F 21.0 °F 75% 30.37 in 10.0 mi NW 12.7 mph - N/A   Overcast
6:01 AM 28.0 °F 17.0 °F 21.0 °F 75% 30.34 in 10.0 mi NW 13.8 mph - N/A   Overcast
6:25 AM 28.0 °F 18.6 °F 21.0 °F 75% 30.35 in 10.0 mi NW 10.4 mph - N/A   Overcast
6:33 AM 28.0 °F 19.3 °F 21.0 °F 75% 30.35 in 10.0 mi NW 9.2 mph - N/A   Overcast
6:54 AM 28.0 °F 18.6 °F 21.0 °F 75% 30.39 in 10.0 mi NW 10.4 mph - N/A   Overcast
7:54 AM 28.0 °F 18.6 °F 21.0 °F 75% 30.40 in 10.0 mi NNW 10.4 mph - N/A   Overcast
8:54 AM 28.9 °F 18.6 °F 19.9 °F 69% 30.41 in 10.0 mi North 12.7 mph - N/A   Overcast
9:54 AM 28.9 °F 18.6 °F 19.0 °F 67% 30.42 in 10.0 mi North 12.7 mph - N/A   Overcast
10:54 AM 30.0 °F 22.4 °F 19.0 °F 64% 30.42 in 10.0 mi NNW 8.1 mph - N/A   Overcast
11:54 AM 32.0 °F - 19.0 °F 59% 30.42 in 10.0 mi Calm Calm - N/A   Overcast
12:54 PM 34.0 °F 28.8 °F 19.0 °F 54% 30.40 in 10.0 mi NNE 5.8 mph - N/A   Overcast
1:54 PM 33.1 °F - 19.9 °F 59% 30.39 in 10.0 mi Calm Calm - N/A   Mostly Cloudy
2:27 PM 32.0 °F 28.7 °F 19.9 °F 61% 30.36 in 10.0 mi SSE 3.5 mph - N/A   Overcast
2:54 PM 35.1 °F 30.1 °F 19.9 °F 54% 30.38 in 10.0 mi Variable 5.8 mph - N/A   Mostly Cloudy
3:54 PM 35.1 °F 28.6 °F 19.9 °F 54% 30.38 in 10.0 mi NW 8.1 mph - N/A   Clear
4:54 PM 34.0 °F 28.8 °F 21.0 °F 59% 30.36 in 10.0 mi North 5.8 mph - N/A   Clear
5:54 PM 32.0 °F 27.5 °F 21.0 °F 64% 30.37 in 10.0 mi NNW 4.6 mph - N/A   Clear
6:54 PM 30.0 °F 26.5 °F 19.9 °F 66% 30.36 in 10.0 mi North 3.5 mph - N/A   Clear
7:54 PM 28.9 °F 23.9 °F 19.9 °F 69% 30.35 in 10.0 mi North 4.6 mph - N/A   Clear
8:54 PM 28.9 °F 23.9 °F 19.9 °F 69% 30.37 in 10.0 mi North 4.6 mph - N/A   Clear
9:54 PM 28.0 °F 24.2 °F 19.0 °F 69% 30.36 in 10.0 mi North 3.5 mph - N/A   Clear
10:54 PM 27.0 °F 23.0 °F 19.0 °F 72% 30.35 in 10.0 mi NE 3.5 mph - N/A   Clear
11:54 PM 25.0 °F 18.1 °F 19.0 °F 78% 30.35 in 10.0 mi NE 5.8 mph - N/A   Clear